Location: Pl�tzky
(52.0521°N, 11.8020°E)
Time: 14:06:58
(UTC+00:00)

Sich 1 - Pass Details

Date: 22 November 2019
Orbit: 595 x 625 km, 82.5° (Epoch: 11 December)

Event Time Altitude Azimuth Distance (km) Brightness Sun altitude
Rises 16:24:22 0° 346° (NNW) 2,882 6.4 -10.7°
Reaches altitude 10° 16:26:36 10° 343° (NNW) 1,978 5.6 -11.0°
Maximum altitude 16:30:55 61° 264° (W) 702 3.7 -11.6°
Drops below altitude 10° 16:35:14 10° 184° (S) 1,979 5.9 -12.3°
Sets 16:37:28 0° 181° (S) 2,884 6.7 -12.6°
